Tracking 25722 objects as of 29-May-2022
HD Live streaming from Space Station
objects crossing your sky now

SCOUT X-4 DEB

Track SCOUT X-4 DEB now!
10-day predictions


NORAD ID: 40592
Int'l Code: 1964-051F
Perigee: 799.0 km
Apogee: 888.9 km
Inclination: 79.9 °
Period: 101.7 minutes
Semi major axis: 7214 km
RCS: Unknown
Launch date: August 25, 1964
Source: United States (US)
Launch site: AIR FORCE WESTERN TEST RANGE (AFWTR)

Note: This is SATELLITE DEBRIS
aabbcc
Your satellite tracking list
Your tracking list is empty




NASA's NSSDC Master Catalog

Two Line Element Set (TLE):
1 40592U 64051F   22148.53981721  .00007490  00000-0  36786-2 0  9991
2 40592  79.8969 215.3618 0062331  39.5969 320.9728 14.16620228365223
Source of the keplerian elements: AFSPC